Regional Weather Roundup
Issued by NWS Glasgow, MT

Home | Current Version | Previous Version | Text Only | Print | Product List | Glossary On
Versions: 1 2 3 4 5 6 7 8 9 10 11 12 13 14 15 16 17 18 19 20 21 22 23 24 25 26 27
000
ASUS45 KGGW 220415
RWRGGW
HOURLY REGIONAL WEATHER ROUNDUP FOR NORTHEAST MONTANA
NATIONAL WEATHER SERVICE GLASGOW MONTANA
1000 PM MDT FRI JUL 21 2017

NOTE: "FAIR" INDICATES FEW OR NO CLOUDS BELOW 12,000 FEET WITH NO
SIGNIFICANT WEATHER AND/OR OBSTRUCTIONS TO VISISBILITY.

NORTHEAST MONTANA


CITY           SKY/WX    TMP DP  RH WIND       PRES   REMARKS
GLASGOW        CLEAR     72  31  22 N9        29.92R
PLENTYWOOD       N/A     67  45  45 N9G21       N/A
WOLF POINT     CLEAR     68  29  23 NW3       29.89R
JORDAN           N/A     71  25  17 N9        29.95R
WINNETT          N/A     73  20  13 NW12G21     N/A
SIDNEY         CLEAR     72  35  25 NW9       29.88R
GLENDIVE       PTCLDY    73  39  29 NW10      29.93R
MALTA            N/A     75  37  25 NW6         N/A
SCOBEY           N/A     65  45  48 W5        29.93R

FORT PECK REPORTS


CITY           SKY/WX    TMP DP  RH WIND       PRES   REMARKS
FORT PECK        N/A     75  32  20 NW13        N/A
THE PINES        N/A     79  23  12 NW6         N/A

SOUTHEAST MONTANA


CITY           SKY/WX    TMP DP  RH WIND       PRES   REMARKS
BILLINGS       PTCLDY    78  27  15 N12       30.01R
MILES CITY     CLOUDY    76  25  15 N8        29.94R
BAKER          CLEAR     68  35  29 CALM      29.96R
LIVINGSTON     CLEAR     72  32  23 CALM      30.10R

CENTRAL MONTANA


CITY           SKY/WX    TMP DP  RH WIND       PRES   REMARKS
HAVRE          CLEAR     72  37  28 N10       29.98R
LEWISTOWN      CLEAR     69  25  19 N6        30.08R
GREAT FALLS    CLEAR     69  28  21 N5        30.06R
CUT BANK       MOCLDY    65  40  39 N9        30.08R
HELENA         CLEAR     72  33  24 NW8       30.08R
BUTTE          CLEAR     70  25  18 N12       30.20R
BOZEMAN        CLEAR     64  39  39 N7        30.10R

WESTERN MONTANA


CITY           SKY/WX    TMP DP  RH WIND       PRES   REMARKS
MISSOULA       CLEAR     71  31  22 NW5       30.09R
KALISPELL      NOT AVBL

NORTH DAKOTA


CITY           SKY/WX    TMP DP  RH WIND       PRES   REMARKS
WILLISTON      CLEAR     76  46  34 N12       29.88R
DICKINSON      PTCLDY    68  42  38 NW8       29.89R
MINOT          CLEAR     70  65  84 N7        29.82R
BISMARCK       CLOUDY    66  64  93 SE20G28   29.86R THUNDER

SOUTHERN SASKATCHEWAN


CITY           SKY/WX    TMP DP  RH WIND       PRES   REMARKS
REGINA         PTCLDY    64  55  72 NW12      29.88R
ESTEVAN        PTCLDY    66  48  52 W18       29.86R
SWIFT CURRENT  CLOUDY    63  48  59 SW8       29.93R HAZE





USA.gov is the U.S. government's official web portal to all federal, state and local government web resources and services.